K4CRS-13 Weather Reports


time (UTC)temp
F
wind
direction
speed
knots
gust
knots
rain 1hr
in
rain 24hr
in
rain mn
in
humidity
%
barometer
mb
20260510192504 80 179 0.9 0.9 0.00 0.01 0.01 64 1051.6
20260510192000 81 199 0.9 1.7 0.00 0.01 0.01 62 1051.6
20260510191456 81 186 0.9 0.9 0.00 0.01 0.01 63 1051.5
20260510190954 81 192 0.9 2.6 0.00 0.01 0.01 63 1051.7
20260510190451 81 189 0.9 1.7 0.00 0.01 0.01 64 1051.6
20260510185948 81 209 1.7 1.7 0.00 0.01 0.01 64 1051.7
20260510185445 80 182 0.9 1.7 0.00 0.01 0.01 66 1051.8
20260510184942 78 170 0.0 0.9 0.00 0.01 0.01 67 1051.9
20260510184439 77 181 0.9 1.7 0.00 0.01 0.01 72 1051.8
20260510183938 78 129 0.0 0.0 0.00 0.01 0.01 71 1051.7
20260510183435 77 209 0.9 0.9 0.00 0.01 0.01 70 1052.0
20260510182929 77 197 0.0 0.9 0.00 0.01 0.01 72 1052.1
20260510182426 76 89 1.7 5.2 0.00 0.01 0.01 70 1052.1
20260510181922 77 165 0.9 1.7 0.00 0.01 0.01 75 1052.0
20260510181420 77 168 0.9 1.7 0.00 0.01 0.01 72 1052.1
20260510180916 77 163 0.0 2.6 0.00 0.01 0.01 72 1052.1
20260510180413 78 188 1.7 1.7 0.00 0.01 0.01 70 1052.3
20260510175910 78 173 1.7 1.7 0.00 0.01 0.01 72 1052.4
20260510175406 77 179 1.7 1.7 0.00 0.01 0.01 72 1052.4
20260510174902 77 213 0.9 1.7 0.00 0.01 0.01 73 1052.5
20260510174400 77 177 0.9 1.7 0.00 0.01 0.01 74 1052.3
20260510173856 77 204 1.7 1.7 0.00 0.01 0.01 71 1052.4
20260510173352 77 181 1.7 2.6 0.00 0.01 0.01 70 1052.8
20260510172848 78 187 2.6 2.6 0.00 0.01 0.01 68 1052.5
20260510172344 80 178 0.9 1.7 0.00 0.01 0.01 69 1052.6
20260510171841 79 185 0.0 0.0 0.00 0.01 0.01 71 1052.6
20260510171338 79 153 0.9 1.7 0.00 0.01 0.01 70 1052.6
20260510170835 79 173 0.0 2.6 0.00 0.01 0.01 69 1052.9
20260510170331 78 174 0.9 2.6 0.00 0.01 0.01 68 1052.6
20260510165826 78 175 1.7 2.6 0.00 0.01 0.01 70 1052.8
20260510165324 78 178 0.9 0.9 0.00 0.01 0.01 69 1052.5
20260510164821 77 179 0.9 2.6 0.00 0.01 0.01 75 1052.8
20260510164318 76 166 0.9 1.7 0.00 0.01 0.01 76 1052.8
20260510163818 76 175 1.7 1.7 0.00 0.01 0.01 76 1052.9
20260510163314 77 166 1.7 1.7 0.00 0.01 0.01 73 1052.8
20260510162813 77 190 0.9 1.7 0.00 0.01 0.01 75 1053.0
20260510162311 77 221 1.7 1.7 0.00 0.01 0.01 75 1052.5
20260510161807 77 215 1.7 2.6 0.00 0.01 0.01 77 1052.8
20260510161303 78 147 0.9 4.3 0.00 0.01 0.01 75 1052.6
20260510160800 78 193 0.9 1.7 0.00 0.01 0.01 74 1052.6
20260510160256 78 172 0.9 0.9 0.00 0.01 0.01 76 1052.8
20260510155751 78 178 0.9 1.7 0.00 0.01 0.01 75 1052.6
20260510155248 78 134 0.0 0.9 0.00 0.01 0.01 78 1052.5
20260510154743 77 180 0.9 1.7 0.00 0.01 0.01 77 1052.6
20260510154239 77 169 0.9 1.7 0.00 0.01 0.01 79 1052.5
20260510153734 76 160 0.9 0.9 0.00 0.01 0.01 81 1052.8
20260510153230 77 139 1.7 1.7 0.00 0.01 0.01 80 1052.5
20260510152727 76 162 0.0 0.9 0.00 0.01 0.01 86 1052.6
20260510152223 74 128 0.0 0.9 0.00 0.01 0.01 90 1052.5
20260510151720 72 168 0.0 0.9 0.00 0.01 0.01 95 1052.5
20260510151219 71 165 0.0 0.9 0.00 0.01 0.01 97 1052.5
20260510150714 70 183 0.9 1.7 0.00 0.01 0.01 98 1052.6
20260510150209 70 202 0.9 0.9 0.00 0.01 0.01 98 1052.4
20260510145706 71 183 0.9 1.7 0.00 0.01 0.01 99 1052.2
20260510145202 71 166 0.0 0.9 0.00 0.01 0.01 99 1052.5
20260510144659 69 185 0.0 1.7 0.00 0.01 0.01 99 1052.4
20260510144155 68 178 0.0 0.0 0.00 0.01 0.01 99 1052.3
20260510143651 69 189 0.0 0.0 0.00 0.01 0.01 99 1052.6
20260510143148 68 167 0.0 0.9 0.00 0.01 0.01 99 1052.3
20260510142644 69 179 0.0 0.9 0.00 0.01 0.01 99 1052.6
20260510142140 68 173 0.0 0.9 0.00 0.01 0.01 99 1052.3
20260510141637 68 192 0.9 0.9 0.00 0.01 0.01 99 1052.2
20260510141136 68 134 0.0 0.0 0.00 0.01 0.01 99 1052.3
20260510140632 66 170 0.0 0.0 0.00 0.01 0.01 99 1052.4
20260510140131 67 192 0.0 0.0 0.00 0.01 0.01 99 1052.5
20260510135627 66 167 0.9 0.9 0.00 0.01 0.01 99 1052.4
20260510135123 67 215 0.9 1.7 0.00 0.01 0.01 99 1052.3
20260510134620 67 171 0.0 0.0 0.00 0.01 0.01 99 1052.2
20260510134117 66 172 0.0 0.0 0.00 0.01 0.01 99 1052.4
20260510133614 66 171 0.0 0.0 0.00 0.01 0.01 99 1052.4
20260510133109 65 179 0.0 0.0 0.00 0.01 0.01 99 1052.4
20260510132606 65 176 0.0 0.0 0.00 0.01 0.01 99 1052.5
20260510132103 65 175 0.0 0.0 0.00 0.01 0.01 99 1052.4
20260510131600 64 172 0.9 0.9 0.00 0.01 0.01 99 1052.3
20260510131057 64 178 0.9 0.9 0.00 0.01 0.01 99 1052.3
20260510130554 64 177 0.9 0.9 0.00 0.01 0.01 99 1052.3
20260510130051 64 173 0.0 0.9 0.00 0.01 0.01 99 1052.4
20260510125548 63 171 0.0 0.0 0.00 0.01 0.01 99 1051.9
20260510125044 62 166 0.0 0.0 0.00 0.01 0.01 99 1052.1
20260510124541 62 163 0.0 0.0 0.00 0.01 0.01 99 1052.0
20260510124038 62 143 0.0 0.0 0.00 0.01 0.01 99 1052.1
20260510123533 62 149 0.0 0.0 0.00 0.01 0.01 99 1052.0
20260510123029 61 171 0.0 0.0 0.00 0.01 0.01 99 1052.1
20260510122525 61 155 0.0 0.0 0.00 0.01 0.01 99 1051.7
20260510122021 61 157 0.0 0.0 0.00 0.01 0.01 99 1051.7
20260510121519 61 158 0.0 0.0 0.00 0.01 0.01 99 1051.6
20260510121016 61 136 0.9 0.9 0.00 0.01 0.01 99 1051.6
20260510120513 60 153 0.0 0.9 0.00 0.01 0.01 99 1051.4
20260510120009 60 137 0.0 0.9 0.00 0.01 0.01 99 1051.5
20260510115506 60 133 0.9 0.9 0.00 0.01 0.01 99 1051.4
20260510115002 60 154 0.0 0.9 0.00 0.01 0.01 99 1051.1
20260510114459 61 143 0.0 0.0 0.00 0.01 0.01 99 1051.3
20260510113954 60 165 0.0 0.0 0.00 0.01 0.01 99 1051.4
20260510113449 60 163 0.0 0.0 0.00 0.01 0.01 99 1051.1
20260510112948 60 165 0.0 0.0 0.00 0.01 0.01 99 1051.2
20260510112445 60 163 0.0 0.0 0.00 0.01 0.01 99 1051.0
20260510111941 60 177 0.0 0.0 0.00 0.01 0.01 99 1051.0
20260510111437 60 166 0.0 0.0 0.00 0.01 0.01 99 1050.8
20260510110933 60 176 0.0 0.0 0.00 0.01 0.01 99 1050.8
20260510110429 61 172 0.0 0.0 0.00 0.01 0.01 99 1050.6
20260510105925 61 169 0.0 0.0 0.00 0.01 0.01 99 1050.3
20260510105420 61 169 0.0 0.0 0.00 0.01 0.01 99 1050.5
20260510104916 61 169 0.0 0.0 0.00 0.01 0.01 99 1050.4
20260510104413 61 171 0.0 0.0 0.00 0.01 0.01 99 1050.0
20260510103910 61 171 0.0 0.0 0.00 0.01 0.01 99 1050.3
20260510103407 61 171 0.0 0.0 0.00 0.01 0.01 99 1049.9
20260510102902 61 171 0.0 0.0 0.00 0.01 0.01 99 1050.0
20260510102358 61 172 0.0 0.0 0.00 0.01 0.01 99 1049.8
20260510101856 61 165 0.0 0.0 0.00 0.01 0.01 99 1050.0
20260510101354 62 171 0.0 0.0 0.00 0.01 0.01 99 1049.9
20260510100850 62 170 0.0 0.0 0.00 0.01 0.01 99 1050.1
20260510100348 62 170 0.0 0.0 0.00 0.01 0.01 99 1049.6
20260510095844 62 172 0.0 0.0 0.00 0.01 0.01 99 1049.7
20260510095338 62 169 0.0 0.0 0.00 0.01 0.01 99 1049.8
20260510094833 62 167 0.0 0.0 0.00 0.01 0.01 99 1049.8
20260510094328 62 159 0.0 0.0 0.00 0.01 0.01 99 1049.7
20260510093825 62 166 0.0 0.0 0.00 0.01 0.01 99 1049.7
20260510093321 62 167 0.0 0.0 0.00 0.01 0.01 99 1049.5
20260510092817 62 161 0.0 0.0 0.00 0.01 0.01 99 1049.5
20260510092313 62 174 0.0 0.0 0.00 0.01 0.01 99 1049.3
20260510091809 62 169 0.0 0.0 0.00 0.01 0.01 99 1049.4
20260510091306 62 164 0.0 0.0 0.00 0.01 0.01 99 1049.4
20260510090803 62 169 0.0 0.0 0.00 0.01 0.01 99 1049.5
20260510090300 62 165 0.0 0.0 0.00 0.01 0.01 99 1049.4
20260510085756 62 171 0.0 0.0 0.00 0.01 0.01 99 1049.2
20260510085254 62 168 0.0 0.0 0.00 0.01 0.01 99 1049.4
20260510084751 62 169 0.0 0.0 0.00 0.01 0.01 99 1049.5
20260510084248 62 169 0.0 0.0 0.00 0.01 0.01 99 1049.3
20260510083744 61 169 0.0 0.0 0.05 0.01 0.01 99 1049.3
20260510083242 61 167 0.0 0.0 0.05 0.01 0.01 99 1049.1
20260510082737 61 161 0.0 0.0 0.00 0.00 0.00 99 1049.2
20260510082234 61 169 0.0 0.0 0.00 0.00 0.00 99 1049.2
20260510081733 61 171 0.0 0.0 0.00 0.00 0.00 99 1049.3
20260510081229 61 171 0.0 0.0 0.00 0.00 0.00 99 1049.3
20260510080724 61 167 0.0 0.0 0.00 0.00 0.00 99 1049.1
20260510080220 62 163 0.0 0.0 0.00 0.00 0.00 99 1049.3
20260510075717 62 162 0.0 0.0 0.00 0.00 0.00 99 1049.1
20260510075215 61 166 0.0 0.0 0.00 0.00 0.00 99 1048.8
20260510074712 61 171 0.0 0.0 0.00 0.00 0.00 99 1048.6
20260510074208 61 171 0.0 0.0 0.00 0.00 0.00 99 1048.9
20260510073705 61 179 0.0 0.0 0.00 0.00 0.00 99 1048.7
20260510073200 60 172 0.0 0.0 0.00 0.00 0.00 99 1048.7
20260510072657 60 161 0.0 0.0 0.00 0.00 0.00 99 1048.6
20260510072153 60 155 0.0 0.0 0.00 0.00 0.00 99 1048.9
20260510071649 60 165 0.0 0.0 0.00 0.00 0.00 99 1048.7
20260510071147 60 161 0.0 0.0 0.00 0.00 0.00 99 1048.9
20260510070644 60 167 0.0 0.0 0.00 0.00 0.00 99 1049.0
20260510070142 60 167 0.0 0.0 0.00 0.00 0.00 99 1048.9
20260510065637 60 167 0.0 0.0 0.00 0.00 0.00 99 1048.8
20260510065133 60 167 0.0 0.0 0.00 0.00 0.00 99 1049.0
20260510064630 60 168 0.0 0.0 0.00 0.00 0.00 99 1048.8
20260510064127 59 168 0.0 0.0 0.00 0.00 0.00 99 1049.0
20260510063623 59 163 0.0 0.0 0.00 0.00 0.00 99 1048.7
20260510063121 59 160 0.0 0.0 0.00 0.00 0.00 99 1048.8
20260510062616 59 168 0.0 0.0 0.00 0.00 0.00 99 1049.1
20260510062112 59 165 0.0 0.0 0.00 0.00 0.00 99 1049.1
20260510061608 58 173 0.0 0.0 0.00 0.00 0.00 99 1049.0
20260510061106 57 179 0.0 0.0 0.00 0.00 0.00 99 1049.1
20260510060601 56 167 0.0 0.0 0.00 0.00 0.00 99 1048.8
20260510060058 56 158 0.0 0.0 0.00 0.00 0.00 99 1049.0
20260510055554 56 158 0.0 0.0 0.00 0.00 0.00 99 1049.1
20260510055053 56 160 0.0 0.0 0.00 0.00 0.00 99 1049.2
20260510054549 56 169 0.0 0.0 0.00 0.00 0.00 99 1049.1
20260510054044 56 172 0.0 0.0 0.00 0.00 0.00 99 1049.1
20260510053543 56 164 0.0 0.0 0.00 0.00 0.00 99 1049.1
20260510053041 57 149 0.0 0.0 0.00 0.00 0.00 99 1049.1
20260510052537 57 169 0.0 0.0 0.00 0.00 0.00 99 1049.1
20260510052033 57 167 0.0 0.0 0.00 0.00 0.00 99 1049.0
20260510051528 57 169 0.0 0.0 0.00 0.00 0.00 99 1049.2
20260510051025 57 163 0.0 0.0 0.00 0.00 0.00 99 1048.9
20260510050523 57 158 0.0 0.0 0.00 0.00 0.00 99 1049.1
20260510050020 58 169 0.0 0.0 0.00 0.00 0.00 99 1049.3
20260510045517 58 163 0.0 0.0 0.00 0.00 0.00 99 1049.1
20260510045012 58 160 0.0 0.0 0.00 0.00 0.00 99 1049.2
20260510044510 58 171 0.0 0.0 0.00 0.00 0.00 99 1049.1
20260510044008 58 165 0.0 0.0 0.00 0.00 0.00 99 1049.1
20260510043502 58 165 0.0 0.0 0.00 0.00 0.00 99 1049.3
20260510043002 58 164 0.0 0.0 0.00 0.00 0.00 99 1049.3
20260510042457 59 167 0.0 0.0 0.00 0.00 0.00 99 1049.2
20260510041953 59 164 0.0 0.0 0.00 0.00 0.00 99 1049.1
20260510041450 59 167 0.0 0.0 0.00 0.00 0.00 98 1049.4
20260510040948 59 165 0.0 0.0 0.00 0.00 0.00 98 1049.3
20260510040444 60 161 0.0 0.0 0.00 0.00 0.00 98 1049.0
20260510035940 59 165 0.0 0.0 0.00 0.00 0.00 98 1049.1
20260510035431 60 154 0.0 0.0 0.00 0.00 0.00 98 1049.2
20260510034931 60 153 0.0 0.0 0.00 0.00 0.00 98 1049.4
20260510034430 61 152 0.0 0.0 0.00 0.00 0.00 98 1049.2
20260510033926 61 175 0.0 0.0 0.00 0.00 0.00 98 1049.5
20260510033422 61 171 0.0 0.0 0.00 0.00 0.00 98 1049.6
20260510032919 61 154 0.0 0.0 0.00 0.00 0.00 98 1049.5
20260510032416 61 154 0.0 0.0 0.00 0.00 0.00 98 1049.5
20260510031911 61 175 0.0 0.0 0.00 0.00 0.00 97 1049.3
20260510031407 62 169 0.0 0.0 0.00 0.00 0.00 97 1049.5
20260510030906 62 169 0.0 0.0 0.00 0.00 0.00 97 1049.5
20260510030403 62 169 0.0 0.0 0.00 0.00 0.00 97 1049.0
20260510025901 62 158 0.0 0.0 0.00 0.00 0.00 97 1049.3
20260510025358 62 171 0.0 0.0 0.00 0.00 0.00 97 1049.5
20260510024855 62 169 0.0 0.0 0.00 0.00 0.00 97 1049.2
20260510024352 62 169 0.0 0.0 0.00 0.00 0.00 97 1049.2
20260510023848 63 166 0.0 0.0 0.00 0.00 0.00 96 1049.1
20260510023344 63 158 0.0 0.0 0.00 0.00 0.00 96 1049.1
20260510022842 63 167 0.0 0.0 0.00 0.00 0.00 96 1048.9
20260510022341 63 159 0.0 0.0 0.00 0.00 0.00 96 1048.8
20260510021840 63 161 0.0 0.0 0.00 0.00 0.00 96 1048.8
20260510021338 63 174 0.0 0.0 0.00 0.00 0.00 96 1048.8
20260510020835 64 169 0.0 0.0 0.00 0.00 0.00 95 1048.6
20260510020334 64 167 0.0 0.0 0.00 0.00 0.00 95 1048.6
20260510015830 64 172 0.0 0.0 0.00 0.00 0.00 95 1048.6
20260510015326 64 174 0.0 0.0 0.00 0.00 0.00 95 1048.3
20260510014822 64 175 0.0 0.0 0.00 0.00 0.00 94 1047.9
20260510014319 64 170 0.0 0.0 0.00 0.00 0.00 94 1047.9
20260510013815 65 176 0.0 0.9 0.00 0.00 0.00 94 1048.1
20260510013311 65 178 0.0 0.9 0.00 0.00 0.00 93 1047.8
20260510012807 65 178 0.9 0.9 0.00 0.00 0.00 93 1047.8
20260510012307 66 176 0.0 0.9 0.00 0.00 0.00 92 1047.7
20260510011806 66 174 0.0 0.0 0.00 0.00 0.00 92 1047.5
20260510011302 66 178 0.9 0.9 0.00 0.00 0.00 91 1047.3
20260510010759 67 173 0.0 0.9 0.00 0.00 0.00 90 1047.2
20260510010256 67 172 0.0 0.9 0.00 0.00 0.00 89 1047.3
20260510005753 68 180 1.7 1.7 0.00 0.00 0.00 87 1046.9
20260510005249 68 175 0.9 0.9 0.00 0.00 0.00 85 1047.1
20260510004747 69 170 0.0 0.0 0.00 0.00 0.00 83 1046.8
20260510004244 70 170 0.0 0.0 0.00 0.00 0.00 82 1047.0
20260510003742 70 171 0.0 0.0 0.00 0.00 0.00 81 1046.7
20260510003238 72 172 0.0 0.0 0.00 0.00 0.00 79 1046.7
20260510002736 73 171 0.0 0.0 0.00 0.00 0.00 77 1046.6
20260510002234 75 174 0.0 0.0 0.00 0.00 0.00 76 1046.7
20260510001731 76 175 0.0 0.0 0.00 0.00 0.00 75 1046.8
20260510001230 75 173 0.0 0.0 0.00 0.00 0.00 76 1046.7
20260510000725 75 173 0.0 0.0 0.00 0.00 0.00 76 1046.7
20260510000222 74 174 0.0 0.0 0.00 0.00 0.00 78 1046.5
20260509235719 74 173 0.0 0.0 0.00 0.00 0.00 78 1046.5
20260509235216 73 172 0.0 0.0 0.00 0.00 0.00 78 1046.7
20260509234712 74 174 0.0 0.9 0.00 0.00 0.00 78 1046.3
20260509234209 74 176 0.0 0.0 0.00 0.00 0.00 79 1046.6
20260509233708 74 172 0.0 0.0 0.00 0.00 0.00 81 1046.4
20260509233204 74 174 0.0 0.0 0.00 0.00 0.00 82 1046.6
20260509232701 74 174 0.0 0.0 0.00 0.00 0.00 83 1046.5
20260509232157 73 174 0.0 0.0 0.00 0.00 0.00 82 1046.4
20260509231654 73 171 0.0 0.0 0.00 0.00 0.00 81 1046.2
20260509231152 73 171 0.0 0.0 0.00 0.00 0.00 80 1046.4
20260509230648 73 170 0.0 0.0 0.00 0.00 0.00 78 1046.4
20260509230145 74 171 0.0 0.0 0.00 0.00 0.00 77 1046.1
20260509225641 74 175 0.0 0.0 0.00 0.00 0.00 75 1046.2
20260509225137 74 180 0.0 0.9 0.00 0.00 0.00 74 1046.4
20260509224632 74 174 0.0 0.0 0.00 0.00 0.00 74 1046.5
20260509224129 74 172 0.0 0.0 0.00 0.00 0.00 76 1046.3
20260509223626 74 170 0.0 0.0 0.00 0.00 0.00 76 1046.3
20260509223124 74 170 0.0 0.0 0.00 0.00 0.00 75 1046.4
20260509222620 74 172 0.0 0.0 0.00 0.00 0.00 75 1046.2
20260509222116 74 168 0.0 0.0 0.00 0.00 0.00 76 1046.1
20260509221612 73 188 0.9 1.7 0.00 0.00 0.00 72 1045.8
20260509221108 73 188 0.9 2.6 0.00 0.00 0.00 73 1045.8
20260509220604 73 247 3.5 5.2 0.00 0.00 0.00 71 1046.0
20260509220100 74 331 1.7 1.7 0.00 0.00 0.00 72 1045.9
20260509215555 74 274 3.5 4.3 0.00 0.00 0.00 71 1045.9
20260509215053 73 184 0.9 2.6 0.00 0.00 0.00 70 1045.8
20260509214550 73 263 1.7 5.2 0.00 0.00 0.00 70 1045.9
20260509214047 73 156 1.7 4.3 0.00 0.00 0.00 71 1045.9
20260509213543 74 277 1.7 4.3 0.00 0.00 0.00 71 1046.0
20260509213040 74 152 2.6 5.2 0.00 0.00 0.00 71 1045.7
20260509212537 74 314 2.6 4.3 0.00 0.00 0.00 71 1045.8
20260509212034 74 245 3.5 5.2 0.00 0.00 0.00 72 1046.3
20260509211530 74 251 2.6 4.3 0.00 0.00 0.00 72 1046.1
20260509211027 74 178 2.6 4.3 0.00 0.00 0.00 69 1046.1
20260509210524 74 56 0.9 2.6 0.00 0.00 0.00 71 1045.9
20260509210020 74 174 0.0 2.6 0.00 0.00 0.00 70 1046.2
20260509205514 74 250 4.3 6.1 0.00 0.00 0.00 71 1046.0
20260509205010 75 243 1.7 1.7 0.00 0.00 0.00 68 1046.0
20260509204506 76 178 0.0 0.9 0.00 0.00 0.00 70 1046.2
20260509204003 75 203 1.7 2.6 0.00 0.00 0.00 70 1046.2
20260509203459 75 179 0.0 0.9 0.00 0.00 0.00 71 1046.0
20260509202956 75 250 1.7 4.3 0.00 0.00 0.00 68 1046.3
20260509202452 74 168 0.0 1.7 0.00 0.00 0.00 68 1046.3
20260509201947 74 260 1.7 6.1 0.00 0.00 0.00 67 1046.3
20260509201443 75 356 2.6 5.2 0.00 0.00 0.00 68 1046.4
20260509200940 74 283 2.6 4.3 0.00 0.00 0.00 70 1046.4
20260509200440 74 303 1.7 1.7 0.00 0.00 0.00 69 1046.7
20260509195937 75 199 0.9 2.6 0.00 0.00 0.00 69 1046.7
20260509195433 75 171 0.0 0.9 0.00 0.00 0.00 69 1046.7
20260509194932 75 265 3.5 6.1 0.00 0.00 0.00 70 1046.9
20260509194428 76 175 0.9 2.6 0.00 0.00 0.00 70 1046.7
20260509193925 76 189 0.9 2.6 0.00 0.00 0.00 68 1047.1
20260509193425 76 184 0.0 4.3 0.00 0.00 0.00 69 1046.7